This is the latest recevied weather packets stored in our database for station/object PA0HHN. If no packets are shown the sender has not sent any weather packets the latest 10 day(s).
| Time | Temp. | Humidity | Pressure | Rain* | Wind** | Luminosity | Snow |
|---|---|---|---|---|---|---|---|
| 1778076001 | 12.22° C | 74% | 1003.9 hPa | - | - | - | - |
| 1778075101 | 11.11° C | 77% | 1003.9 hPa | - | - | - | - |
| 1778074200 | 12.22° C | 77% | 1004.2 hPa | - | - | - | - |
| 1778073302 | 11.11° C | 76% | 1003.8 hPa | - | - | - | - |
| 1778072402 | 11.11° C | 73% | 1004.1 hPa | - | - | - | - |
| 1778071502 | 10° C | 79% | 1004.1 hPa | - | - | - | - |
| 1778070601 | 10° C | 77% | 1003.9 hPa | - | - | - | - |
| 1778069702 | 10° C | 80% | 1003.9 hPa | - | - | - | - |
| 1778068800 | 10° C | 81% | 1003.9 hPa | - | - | - | - |
| 1778067902 | 10° C | 79% | 1003.8 hPa | - | - | - | - |
| 1778067001 | 10° C | 78% | 1003.6 hPa | - | - | - | - |
| 1778066102 | 10° C | 78% | 1003.5 hPa | - | - | - | - |
| 1778065202 | 10° C | 78% | 1003.3 hPa | - | - | - | - |
| 1778064300 | 10° C | 78% | 1003.6 hPa | - | - | - | - |
| 1778063401 | 10° C | 77% | 1003.4 hPa | - | - | - | - |
| 1778062502 | 10° C | 81% | 1003.3 hPa | - | - | - | - |
| 1778061600 | 10° C | 82% | 1003 hPa | - | - | - | - |
| 1778056201 | 10° C | 83% | 1002.6 hPa | - | - | - | - |
| 1778053502 | 10° C | 84% | 1002.5 hPa | - | - | - | - |
| 1778050802 | 8.89° C | 88% | 1002.3 hPa | - | - | - | - |
| 1778049902 | 8.89° C | 89% | 1002.3 hPa | - | - | - | - |
| 1778049002 | 8.89° C | 91% | 1002.3 hPa | - | - | - | - |
| 1778048100 | 8.89° C | 90% | 1002.3 hPa | - | - | - | - |
| 1778047202 | 8.89° C | 91% | 1002.3 hPa | - | - | - | - |
| 1778045401 | 8.89° C | 91% | 1002 hPa | - | - | - | - |
* Rain since midnight (hover to see other rain measurements)
** Current wind speed in m/s (hover to see current wind gust speed)